DAL28 KLAX-LGAV

Flight info

Callsign DAL28
Flight time N/A
Altitude 33000
Route OSHNN1 BEALE Q842 WINEN DCT MLF DCT TOOKE DCT SWUNG DCT FAR/N0492F350 DCT MEBSI DCT LORNE DCT PETNO DCT ODKAP DCT KONCH/N0487F370 DCT RIKAL/M084F370 DCT 52N050W 51N040W 51N030W 50N020W 47N010W DCT SEPAL DCT LAPEX/N0477F370 DCT GALOF/N0478F390 DCT CNA DCT LERGA DCT TOZOT UT183 OTROT UM728 KOLON DCT RAPUR DCT RATAP DCT BTA DCT DOKAR DCT SUNEV DCT INGAB DCT ALIXI DCT DINOB DCT ARA UB34 NEMES
Aircraft A359/H-SDE2E3GHIJ3J4J5LM1ORWXY/LB1D1

Departure

Time 2026-05-08 02:30
Airport Los Angeles International Airport (KLAX)

Arrival

Time N/A
Airport Athens Eleftherios Venizelos International Airport (LGAV)
Time Latitude Longitude Altitude Speed Heading
2026-05-08 02:02 33.94025 -118.40916 132 ft 0 kts 264°
2026-05-08 02:16 33.94028 -118.40898 127 ft 2 kts 257°
2026-05-08 02:16 33.94033 -118.40880 132 ft 2 kts 247°
2026-05-08 02:17 33.94041 -118.40862 123 ft 2 kts 232°
2026-05-08 02:17 33.94052 -118.40848 130 ft 2 kts 213°
2026-05-08 02:17 33.94067 -118.40840 129 ft 2 kts 195°
2026-05-08 02:17 33.94083 -118.40837 130 ft 2 kts 180°
2026-05-08 02:18 33.94094 -118.40837 132 ft 1 kts 174°
2026-05-08 02:22 33.94093 -118.40837 132 ft 1 kts 173°
2026-05-08 02:22 33.94075 -118.40833 128 ft 5 kts 170°
2026-05-08 02:23 33.94001 -118.40820 130 ft 16 kts 173°
2026-05-08 02:23 33.93885 -118.40776 128 ft 16 kts 137°
2026-05-08 02:23 33.93815 -118.40684 124 ft 15 kts 104°
2026-05-08 02:23 33.93822 -118.40557 123 ft 16 kts 84°
2026-05-08 02:24 33.93835 -118.40425 128 ft 16 kts 83°
2026-05-08 02:24 33.93850 -118.40281 130 ft 19 kts 83°
2026-05-08 02:24 33.93866 -118.40118 123 ft 20 kts 83°
2026-05-08 02:24 33.93883 -118.39950 124 ft 20 kts 83°
2026-05-08 02:25 33.93901 -118.39778 127 ft 21 kts 83°
2026-05-08 02:25 33.93919 -118.39600 132 ft 22 kts 82°
2026-05-08 02:25 33.93938 -118.39419 123 ft 22 kts 83°
2026-05-08 02:25 33.93957 -118.39234 125 ft 22 kts 83°
2026-05-08 02:26 33.93976 -118.39046 129 ft 23 kts 83°
2026-05-08 02:26 33.93996 -118.38853 129 ft 23 kts 83°
2026-05-08 02:26 33.94015 -118.38660 125 ft 24 kts 82°
2026-05-08 02:26 33.94036 -118.38462 125 ft 24 kts 83°
2026-05-08 02:27 33.94056 -118.38261 126 ft 24 kts 83°
2026-05-08 02:27 33.94075 -118.38076 132 ft 4 kts 84°
2026-05-08 02:27 33.94076 -118.38073 132 ft 1 kts 85°
2026-05-08 02:27 33.94073 -118.38047 130 ft 0 kts 102°
2026-05-08 02:29 33.94055 -118.38020 127 ft 10 kts 143°
2026-05-08 02:29 33.93987 -118.38042 123 ft 12 kts 243°
2026-05-08 02:29 33.93968 -118.38197 124 ft 33 kts 265°
2026-05-08 02:30 33.93909 -118.38759 125 ft 103 kts 263°
2026-05-08 02:30 33.93793 -118.39881 127 ft 165 kts 262°
2026-05-08 02:30 33.93698 -118.40871 286 ft 191 kts 262°
2026-05-08 02:30 33.93451 -118.43167 1087 ft 220 kts 261°
2026-05-08 02:31 33.93219 -118.45092 1788 ft 244 kts 262°
2026-05-08 02:31 33.93065 -118.46479 2260 ft 257 kts 264°
2026-05-08 02:31 33.92865 -118.48650 3070 ft 258 kts 265°
2026-05-08 02:31 33.92661 -118.51437 4156 ft 247 kts 266°
2026-05-08 02:32 33.92513 -118.53468 4936 ft 239 kts 266°